User: anonymous   Login
Location: ??
(35.5052°N, 139.7262°E)
Time: 02:33:36
(UTC+00:00)
Language:

Cosmos 1743 Rocket - Orbit

View from above orbital plane
View from above orbital plane
View from above satellite
View from above satellite

Ground track
Ground track

The orbit data is extracted from the following two-line orbital elements,

1 16720U 86034B   21270.62377922  .00000128  00000-0  12662-4 0  9999
2 16720  82.5548 223.7100 0019817 347.6806 185.2145 14.83450417889946
Epoch (UTC): 27 September 2021 14:58:14
Eccentricity: 0.0019817
inclination: 82.5548°
perigee height: 604 km
apogee height: 632 km
right ascension of ascending node: 223.7100°
argument of perigee: 347.6806°
revolutions per day: 14.83450417
mean anomaly at epoch: 185.2145°
orbit number at epoch: 88994

The dashed part of the orbit path shows where the satellite is in the earth's shadow,  

DLR